IDPCP LIMJ-LIML

Flight info

Callsign IDPCP
Flight time N/A
Altitude 3000
Route PASSOTURCHINO ALESSANDRIA CASALE BORGOMANERO LAGOMAGGIORE
Aircraft CL2T/M-V/N

Departure

Time 2026-04-22 17:42
Airport Genoa Cristoforo Colombo Airport (LIMJ)

Arrival

Time N/A
Airport Milano Linate Airport (LIML)
Time Latitude Longitude Altitude Speed Heading
2026-04-22 17:31 44.41742 8.85218 17 ft 0 kts 106°
2026-04-22 17:34 44.41742 8.85217 17 ft 0 kts 106°
2026-04-22 17:38 44.41742 8.85216 17 ft 0 kts 106°
2026-04-22 17:38 44.41743 8.85225 20 ft 3 kts 64°
2026-04-22 17:39 44.41754 8.85159 19 ft 18 kts 235°
2026-04-22 17:39 44.41633 8.84965 17 ft 33 kts 231°
2026-04-22 17:39 44.41373 8.84501 17 ft 31 kts 228°
2026-04-22 17:40 44.41281 8.84345 17 ft 14 kts 232°
2026-04-22 17:40 44.41273 8.84331 17 ft 0 kts 233°
2026-04-22 17:41 44.41272 8.84330 17 ft 2 kts 233°
2026-04-22 17:41 44.41213 8.84212 20 ft 21 kts 239°
2026-04-22 17:41 44.41243 8.83949 19 ft 53 kts 288°
2026-04-22 17:41 44.41350 8.83260 72 ft 88 kts 288°
2026-04-22 17:42 44.41503 8.82256 190 ft 116 kts 286°
2026-04-22 17:42 44.41650 8.81238 700 ft 105 kts 289°
2026-04-22 17:42 44.41930 8.80219 941 ft 113 kts 317°
2026-04-22 17:42 44.42619 8.79997 1334 ft 107 kts 23°
2026-04-22 17:43 44.43245 8.80441 1822 ft 101 kts 17°
2026-04-22 17:43 44.43957 8.80352 1897 ft 121 kts 314°
2026-04-22 17:43 44.44395 8.79351 2142 ft 127 kts 304°
2026-04-22 17:43 44.44863 8.78243 2354 ft 132 kts 305°
2026-04-22 17:44 44.45377 8.77222 2688 ft 130 kts 315°
2026-04-22 17:44 44.45912 8.76174 3003 ft 134 kts 306°
2026-04-22 17:44 44.46318 8.74977 3266 ft 136 kts 305°
2026-04-22 17:44 44.46952 8.74008 3472 ft 133 kts 326°
2026-04-22 17:45 44.47695 8.73181 3520 ft 145 kts 327°
2026-04-22 17:45 44.48475 8.72248 3605 ft 146 kts 324°
2026-04-22 17:45 44.49335 8.71540 3776 ft 143 kts 341°
2026-04-22 17:45 44.50279 8.71057 3933 ft 145 kts 341°
2026-04-22 17:46 44.51212 8.70525 4088 ft 146 kts 340°
2026-04-22 17:46 44.52137 8.69856 4145 ft 154 kts 329°
2026-04-22 17:46 44.52993 8.69010 4326 ft 148 kts 334°
2026-04-22 17:46 44.53963 8.68490 4382 ft 153 kts 347°
2026-04-22 17:47 44.55033 8.68109 4283 ft 161 kts 347°
2026-04-22 17:47 44.56073 8.67740 4402 ft 153 kts 347°
2026-04-22 17:47 44.57104 8.67337 4395 ft 155 kts 344°
2026-04-22 17:47 44.58107 8.66809 4396 ft 154 kts 342°
2026-04-22 17:48 44.58784 8.66431 4370 ft 157 kts 342°
2026-04-22 17:48 44.60202 8.65880 4319 ft 159 kts 349°
2026-04-22 17:48 44.61264 8.65476 4376 ft 160 kts 344°
2026-04-22 17:48 44.62321 8.64977 4389 ft 159 kts 344°
2026-04-22 17:49 44.63382 8.64629 4437 ft 157 kts 354°
2026-04-22 17:49 44.64516 8.64427 4161 ft 168 kts 355°
2026-04-22 17:49 44.65684 8.64279 4082 ft 164 kts 356°
2026-04-22 17:49 44.66802 8.64212 3995 ft 160 kts 360°
2026-04-22 17:50 44.67946 8.64172 3743 ft 168 kts 358°
2026-04-22 17:50 44.69099 8.63977 3614 ft 164 kts 353°
2026-04-22 17:50 44.70194 8.63676 3547 ft 163 kts 348°
2026-04-22 17:50 44.71321 8.63342 3329 ft 166 kts 353°
2026-04-22 17:51 44.72461 8.63188 3233 ft 163 kts
2026-04-22 17:51 44.73590 8.63175 3125 ft 162 kts
2026-04-22 17:51 44.74731 8.63254 2936 ft 165 kts
2026-04-22 17:51 44.75861 8.63372 2886 ft 160 kts
2026-04-22 17:52 44.76973 8.63455 2764 ft 161 kts
2026-04-22 17:52 44.78099 8.63445 2626 ft 162 kts
2026-04-22 17:52 44.79233 8.63431 2505 ft 162 kts
2026-04-22 17:52 44.80361 8.63351 2359 ft 164 kts 360°
2026-04-22 17:53 44.81494 8.63329 2211 ft 161 kts
2026-04-22 17:53 44.82605 8.63337 2123 ft 159 kts
2026-04-22 17:53 44.83704 8.63351 1969 ft 161 kts 355°
2026-04-22 17:53 44.84781 8.62923 1847 ft 162 kts 339°
2026-04-22 17:54 44.85781 8.62133 1672 ft 164 kts 335°
2026-04-22 17:54 44.86793 8.61709 1792 ft 152 kts 356°
2026-04-22 17:54 44.87917 8.61604 1478 ft 167 kts
2026-04-22 17:54 44.89078 8.61586 1434 ft 162 kts
2026-04-22 17:55 44.89824 8.61604 1422 ft 159 kts
2026-04-22 17:55 44.91267 8.61670 1437 ft 155 kts
2026-04-22 17:55 44.92362 8.61801 1335 ft 158 kts
2026-04-22 17:55 44.93446 8.61970 1323 ft 155 kts
2026-04-22 17:56 44.94525 8.62088 1349 ft 158 kts
2026-04-22 17:56 44.95643 8.62078 1354 ft 161 kts
2026-04-22 17:56 44.96757 8.62037 1478 ft 159 kts 359°
2026-04-22 17:56 44.97865 8.61931 1551 ft 161 kts 356°
2026-04-22 17:57 44.98991 8.61806 1541 ft 163 kts
2026-04-22 17:57 45.00101 8.61757 1600 ft 161 kts
2026-04-22 17:57 45.01218 8.61658 1678 ft 161 kts 359°
2026-04-22 17:57 45.02335 8.61586 1705 ft 161 kts
2026-04-22 17:58 45.03464 8.61427 1711 ft 164 kts 356°
2026-04-22 17:58 45.04598 8.61289 1800 ft 160 kts 359°
2026-04-22 17:58 45.05710 8.61163 1842 ft 164 kts 357°
2026-04-22 17:58 45.06858 8.61007 1855 ft 166 kts 358°
2026-04-22 17:59 45.08001 8.60888 1886 ft 165 kts 359°
2026-04-22 17:59 45.09162 8.60773 1907 ft 167 kts 358°
2026-04-22 17:59 45.10301 8.60659 2023 ft 162 kts
2026-04-22 17:59 45.11435 8.60584 2058 ft 165 kts
2026-04-22 18:00 45.12193 8.60549 2109 ft 164 kts
2026-04-22 18:00 45.13712 8.60589 2128 ft 166 kts
2026-04-22 18:00 45.14865 8.60671 2189 ft 166 kts
2026-04-22 18:00 45.16027 8.60759 2161 ft 168 kts
2026-04-22 18:01 45.17201 8.60838 2175 ft 169 kts
2026-04-22 18:01 45.18373 8.60814 2212 ft 168 kts
2026-04-22 18:01 45.19560 8.60765 2127 ft 172 kts
2026-04-22 18:01 45.20748 8.60549 2082 ft 176 kts 345°
2026-04-22 18:02 45.21805 8.59643 2013 ft 180 kts 322°
2026-04-22 18:02 45.22698 8.58464 2083 ft 174 kts 320°
2026-04-22 18:02 45.23590 8.57299 2073 ft 176 kts 320°
2026-04-22 18:02 45.24509 8.56111 2020 ft 179 kts 321°
2026-04-22 18:03 45.25413 8.54936 2093 ft 174 kts 318°
2026-04-22 18:03 45.26268 8.53702 2073 ft 176 kts 316°
2026-04-22 18:03 45.27157 8.52493 2016 ft 178 kts 320°
2026-04-22 18:03 45.28111 8.51383 2005 ft 176 kts 324°
2026-04-22 18:04 45.29177 8.50571 2006 ft 173 kts 338°
2026-04-22 18:04 45.30316 8.50027 1998 ft 173 kts 343°
2026-04-22 18:04 45.31468 8.49541 1962 ft 174 kts 344°
2026-04-22 18:04 45.32618 8.49102 1955 ft 172 kts 346°
2026-04-22 18:05 45.33790 8.48734 1923 ft 173 kts 350°
2026-04-22 18:05 45.34986 8.48526 1892 ft 173 kts 356°
2026-04-22 18:05 45.36198 8.48457 1822 ft 175 kts 358°
2026-04-22 18:05 45.37423 8.48429 1752 ft 176 kts
2026-04-22 18:06 45.38643 8.48479 1715 ft 175 kts
2026-04-22 18:06 45.39860 8.48548 1669 ft 175 kts
2026-04-22 18:06 45.41072 8.48604 1627 ft 174 kts
2026-04-22 18:06 45.42285 8.48689 1575 ft 174 kts
2026-04-22 18:07 45.43083 8.48768 1585 ft 172 kts
2026-04-22 18:07 45.44680 8.48918 1503 ft 175 kts
2026-04-22 18:07 45.45890 8.49045 1466 ft 174 kts
2026-04-22 18:07 45.47101 8.49093 1410 ft 174 kts 360°
2026-04-22 18:08 45.48321 8.49140 1347 ft 175 kts
2026-04-22 18:08 45.49517 8.49209 1404 ft 170 kts
2026-04-22 18:08 45.50697 8.49346 1468 ft 169 kts
2026-04-22 18:08 45.51868 8.49554 1514 ft 170 kts
2026-04-22 18:09 45.53040 8.49763 1569 ft 170 kts
2026-04-22 18:09 45.54211 8.49976 1626 ft 169 kts
2026-04-22 18:09 45.55391 8.50193 1580 ft 173 kts
2026-04-22 18:09 45.56582 8.50454 1565 ft 172 kts 11°
2026-04-22 18:10 45.57757 8.50732 1622 ft 170 kts 10°
2026-04-22 18:10 45.58924 8.51015 1649 ft 170 kts 11°
2026-04-22 18:10 45.60095 8.51352 1642 ft 173 kts 12°
2026-04-22 18:10 45.61275 8.51632 1699 ft 171 kts
2026-04-22 18:11 45.62423 8.51977 1787 ft 169 kts 14°
2026-04-22 18:11 45.63563 8.52359 1823 ft 171 kts 12°
2026-04-22 18:11 45.64752 8.52664 1764 ft 175 kts 11°
2026-04-22 18:11 45.65934 8.52963 1871 ft 170 kts
2026-04-22 18:12 45.67124 8.53161 1812 ft 174 kts
2026-04-22 18:12 45.68315 8.53357 1878 ft 170 kts
2026-04-22 18:12 45.69096 8.53519 1858 ft 173 kts
2026-04-22 18:12 45.70690 8.53899 1803 ft 174 kts 12°
2026-04-22 18:13 45.71843 8.54489 1639 ft 178 kts 28°
2026-04-22 18:13 45.72867 8.55384 1266 ft 164 kts 34°
2026-04-22 18:13 45.73474 8.55957 1075 ft 154 kts 34°
2026-04-22 18:13 45.74358 8.56730 794 ft 143 kts 29°
2026-04-22 18:14 45.75462 8.57040 744 ft 105 kts 349°
2026-04-22 18:14 45.76090 8.56783 656 ft 85 kts 343°
2026-04-22 18:14 45.76437 8.56641 647 ft 68 kts 345°
2026-04-22 18:14 45.76905 8.56461 646 ft 76 kts 344°
2026-04-22 18:15 45.77463 8.56234 670 ft 89 kts 342°
2026-04-22 18:15 45.78097 8.55982 689 ft 102 kts 347°
2026-04-22 18:15 45.78803 8.55764 751 ft 109 kts 352°
2026-04-22 18:15 45.79530 8.55873 943 ft 102 kts 26°
2026-04-22 18:16 45.80038 8.56562 1002 ft 108 kts 82°
2026-04-22 18:16 45.79631 8.57294 1084 ft 104 kts 171°
2026-04-22 18:16 45.78918 8.57305 1217 ft 104 kts 197°
2026-04-22 18:16 45.78361 8.56696 1294 ft 96 kts 240°
2026-04-22 18:17 45.78281 8.55679 736 ft 110 kts 269°
2026-04-22 18:17 45.78286 8.54721 661 ft 84 kts 268°
2026-04-22 18:17 45.78640 8.54151 745 ft 101 kts 22°
2026-04-22 18:17 45.79168 8.54650 650 ft 78 kts 39°
2026-04-22 18:18 45.79521 8.55087 645 ft 58 kts 48°
2026-04-22 18:18 45.79829 8.55631 645 ft 79 kts 55°
2026-04-22 18:18 45.80184 8.56335 667 ft 93 kts 56°
2026-04-22 18:18 45.80569 8.57136 754 ft 102 kts 57°
2026-04-22 18:19 45.80909 8.58054 881 ft 105 kts 85°
2026-04-22 18:19 45.80576 8.58846 972 ft 109 kts 174°
2026-04-22 18:19 45.79858 8.58476 1060 ft 113 kts 208°
2026-04-22 18:19 45.79187 8.57953 1291 ft 108 kts 212°
2026-04-22 18:20 45.78598 8.57289 1458 ft 108 kts 237°
2026-04-22 18:20 45.78801 8.56566 1304 ft 101 kts 352°
2026-04-22 18:20 45.79590 8.56648 688 ft 111 kts
2026-04-22 18:20 45.80251 8.56810 646 ft 86 kts 10°
2026-04-22 18:21 45.80745 8.56949 644 ft 65 kts 12°
2026-04-22 18:21 45.81271 8.57120 649 ft 89 kts 13°
2026-04-22 18:21 45.81903 8.57348 733 ft 100 kts 19°
2026-04-22 18:21 45.82337 8.58079 747 ft 109 kts 101°
2026-04-22 18:22 45.81770 8.58507 783 ft 109 kts 196°
2026-04-22 18:22 45.81018 8.58234 879 ft 114 kts 193°
2026-04-22 18:22 45.80234 8.58017 1004 ft 115 kts 189°
2026-04-22 18:22 45.79452 8.57813 1171 ft 113 kts 194°
2026-04-22 18:23 45.78694 8.57484 1328 ft 108 kts 207°
2026-04-22 18:23 45.78587 8.56814 1531 ft 83 kts 318°
2026-04-22 18:23 45.79275 8.56589 957 ft 108 kts
2026-04-22 18:24 45.80557 8.56972 642 ft 71 kts 15°
2026-04-22 18:24 45.81003 8.57170 641 ft 73 kts 21°
2026-04-22 18:24 45.82062 8.57983 692 ft 103 kts 70°
2026-04-22 18:25 45.81822 8.58841 728 ft 107 kts 168°
2026-04-22 18:25 45.81101 8.58602 869 ft 104 kts 196°
2026-04-22 18:25 45.80396 8.58301 1007 ft 108 kts 196°
2026-04-22 18:26 45.78958 8.57572 1297 ft 112 kts 203°
2026-04-22 18:26 45.78500 8.56940 1681 ft 79 kts 284°
2026-04-22 18:26 45.79016 8.56585 1066 ft 93 kts 358°
2026-04-22 18:26 45.79642 8.56685 667 ft 84 kts 12°
2026-04-22 18:27 45.80120 8.56831 644 ft 68 kts 14°
2026-04-22 18:27 45.80676 8.57024 763 ft 91 kts 14°
2026-04-22 18:27 45.81133 8.56658 857 ft 100 kts 265°
2026-04-22 18:27 45.80779 8.55925 1038 ft 97 kts 194°
2026-04-22 18:28 45.80132 8.55801 1238 ft 91 kts 191°
2026-04-22 18:28 45.79606 8.55810 1123 ft 81 kts 126°
2026-04-22 18:28 45.79851 8.56566 675 ft 96 kts 29°
2026-04-22 18:28 45.80365 8.56997 641 ft 72 kts 34°
2026-04-22 18:29 45.80790 8.57433 641 ft 84 kts 39°
2026-04-22 18:29 45.81266 8.58027 779 ft 92 kts 57°
2026-04-22 18:29 45.81294 8.58929 873 ft 99 kts 132°
2026-04-22 18:29 45.80659 8.58995 938 ft 106 kts 206°
2026-04-22 18:30 45.80017 8.58515 1141 ft 105 kts 207°
2026-04-22 18:30 45.78730 8.57473 1427 ft 111 kts 217°
2026-04-22 18:30 45.78559 8.56760 1381 ft 83 kts 316°
2026-04-22 18:31 45.79166 8.56591 886 ft 86 kts
2026-04-22 18:31 45.79723 8.56668 647 ft 68 kts 10°
2026-04-22 18:31 45.80188 8.56798 646 ft 79 kts 14°
2026-04-22 18:31 45.80769 8.57003 725 ft 86 kts 17°
2026-04-22 18:32 45.81136 8.57686 728 ft 100 kts 91°
2026-04-22 18:32 45.80744 8.58358 808 ft 103 kts 181°
2026-04-22 18:32 45.80039 8.58061 898 ft 108 kts 198°
2026-04-22 18:32 45.79345 8.57711 1104 ft 104 kts 200°
2026-04-22 18:33 45.78690 8.57370 1364 ft 93 kts 204°
2026-04-22 18:33 45.78563 8.56786 1429 ft 81 kts 324°
2026-04-22 18:33 45.79175 8.56620 877 ft 86 kts 360°
2026-04-22 18:33 45.79734 8.56673 643 ft 68 kts
2026-04-22 18:34 45.79934 8.56717 641 ft 6 kts
2026-04-22 18:34 45.79956 8.56721 642 ft 2 kts
2026-04-22 18:34 45.80039 8.56742 643 ft 48 kts 15°
2026-04-22 18:34 45.80551 8.56960 697 ft 92 kts 19°
2026-04-22 18:35 45.81088 8.57497 1011 ft 111 kts 49°
2026-04-22 18:35 45.81650 8.58415 1261 ft 131 kts 49°
2026-04-22 18:35 45.81918 8.59657 1434 ft 143 kts 107°
2026-04-22 18:35 45.81286 8.60688 1778 ft 141 kts 143°
2026-04-22 18:36 45.80459 8.61550 1999 ft 149 kts 145°
2026-04-22 18:36 45.79642 8.62536 2121 ft 159 kts 134°
2026-04-22 18:36 45.79128 8.63979 2112 ft 170 kts 107°
2026-04-22 18:36 45.78777 8.65634 2102 ft 176 kts 107°
2026-04-22 18:37 45.78465 8.67379 1991 ft 179 kts 106°
2026-04-22 18:37 45.78185 8.69005 2161 ft 165 kts 107°
2026-04-22 18:37 45.77984 8.70054 2160 ft 165 kts 108°
2026-04-22 18:37 45.77527 8.72147 2193 ft 163 kts 109°
2026-04-22 18:38 45.77180 8.73688 2155 ft 163 kts 109°
2026-04-22 18:38 45.76836 8.75211 2221 ft 161 kts 110°
2026-04-22 18:38 45.76489 8.76745 2237 ft 162 kts 110°
2026-04-22 18:39 45.75847 8.79835 2376 ft 160 kts 109°
2026-04-22 18:39 45.75482 8.81360 2349 ft 163 kts 110°
2026-04-22 18:39 45.75098 8.82888 2400 ft 160 kts 112°
2026-04-22 18:39 45.74738 8.84246 2315 ft 141 kts 112°
2026-04-22 18:40 45.74396 8.85569 2026 ft 136 kts 115°
2026-04-22 18:40 45.73980 8.86648 1846 ft 108 kts 125°
2026-04-22 18:40 45.73458 8.87198 1689 ft 85 kts 161°
2026-04-22 18:40 45.72903 8.87647 1543 ft 96 kts 127°
2026-04-22 18:41 45.72915 8.88534 1410 ft 89 kts 69°
2026-04-22 18:41 45.73422 8.88892 1159 ft 87 kts 349°
2026-04-22 18:41 45.73954 8.88833 1084 ft 40 kts 358°
2026-04-22 18:41 45.74074 8.88787 1085 ft 15 kts 275°
2026-04-22 18:42 45.74065 8.88673 1086 ft 5 kts 271°
2026-04-22 18:42 45.74050 8.88663 1086 ft 5 kts 172°
2026-04-22 18:42 45.74036 8.88648 1086 ft 7 kts
2026-04-22 18:42 45.74042 8.88648 1086 ft 0 kts 359°